Flag for Slovakia Weather past 2 weeks in Bratislava, Slovakia

Now
68 °F

Passing clouds.


Feels Like: 68 °F
Forecast: 56 / 70 °F
Wind: 14 mph from South

Location: Bratislava Ivanka

Current Time: Sep 18, 2014 at 12:04:08 PM

Latest Report: Sep 18, 2014 at 11:30 AM


Visibility: N/A

Pressure: 30.12 "Hg

Humidity: 60%

Dew point: 54 °F

Location of BratislavaLocation

Historic Weather in Bratislava — Graph

°F

Bratislava temperature yesterday

Maximum temperature yesterday: 73 °F (at 3:00 PM)
Minimum temperature yesterday: 52 °F (at 5:30 AM)
Average temperature yesterday: 62 °F

Past Weeks' High & Low Weather Summary

 TemperatureHumidityPressure
High81 °F (Sep 4, 4:30 PM)100% (Sep 15, 4:00 AM)30.12 "Hg (Sep 15, 4:00 AM)
Low50 °F (Sep 18, 6:00 AM)42% (Sep 5, 5:00 PM)29.77 "Hg (Sep 12, 4:30 AM)
Average64 °F79%30.00 "Hg
* Reported Sep 3 11:00 AM — Sep 18 11:00 AM, Bratislava, Weather by CustomWeather, © 2014

Note: Actual official high and low records may vary slightly from our data, if they occured in-between our weather recording intervals... More about our weather records

Advertising

Bratislava weather history for previous 24 hours

 ConditionsComfort  
Time TempWeatherWind HumidityBarometerVisibility
11:00 AM
Sep 18
66 °FPassing clouds.9 mph64%30.12 "HgN/A
10:30 AM66 °FPassing clouds.9 mph64%30.12 "HgN/A
10:00 AM64 °FPassing clouds.7 mph68%30.12 "HgN/A
9:30 AM61 °FPassing clouds.6 mph83%30.12 "HgN/A
9:00 AM59 °FPassing clouds.3 mph82%30.12 "HgN/A
8:30 AM57 °FPassing clouds.2 mph88%30.09 "Hg5 mi
8:00 AM55 °FFog.2 mph88%30.09 "Hg5 mi
7:30 AM54 °FFog.3 mph94%30.09 "Hg5 mi
7:00 AM52 °FFog.2 mph94%30.09 "Hg4 mi
6:30 AM50 °FFog.5 mph94%30.09 "Hg4 mi
6:00 AM50 °FFog.2 mph94%30.09 "Hg5 mi
5:30 AM52 °FClear.2 mph94%30.09 "Hg10 mi
5:00 AM52 °FClear.5 mph94%30.09 "Hg10 mi
4:30 AM52 °FClear.2 mph94%30.09 "Hg10 mi
4:00 AM52 °FClear.6 mph94%30.09 "Hg10 mi
3:30 AM54 °FClear.2 mph88%30.09 "Hg10 mi
3:00 AM54 °FClear.3 mph88%30.09 "Hg10 mi
2:30 AM54 °FClear.5 mph88%30.09 "Hg10 mi
2:00 AM54 °FClear.2 mph94%30.09 "Hg10 mi
1:30 AM55 °FClear.No wind88%30.09 "Hg10 mi
1:00 AM55 °FClear.2 mph88%30.09 "Hg10 mi
12:30 AM55 °FClear.No wind94%30.09 "Hg10 mi
12:00 AM57 °FClear.2 mph88%30.09 "Hg10 mi
11:30 PM
Sep 17
57 °FClear.No wind88%30.09 "Hg10 mi
11:00 PM57 °FClear.2 mph88%30.09 "Hg10 mi
10:30 PM59 °FClear.2 mph82%30.09 "Hg10 mi
10:00 PM59 °FClear.3 mph82%30.09 "Hg10 mi
9:30 PM61 °FClear.3 mph83%30.09 "Hg10 mi
9:00 PM61 °FClear.5 mph83%30.09 "Hg10 mi
8:30 PM63 °FPassing clouds.6 mph77%30.09 "HgN/A
8:00 PM64 °FPassing clouds.5 mph78%30.07 "HgN/A
7:30 PM64 °FScattered clouds.3 mph73%30.07 "HgN/A
7:00 PM66 °FPassing clouds.3 mph68%30.07 "HgN/A
6:30 PM68 °FPassing clouds.5 mph64%30.07 "HgN/A
6:00 PM70 °FPassing clouds.5 mph60%30.07 "HgN/A
5:30 PM72 °FPassing clouds.7 mph53%30.07 "HgN/A
5:00 PM72 °FScattered clouds.8 mph53%30.07 "HgN/A
4:30 PM72 °FScattered clouds.6 mph53%30.07 "HgN/A
4:00 PM73 °FScattered clouds.5 mph50%30.07 "HgN/A
3:30 PM73 °FScattered clouds.8 mph50%30.07 "HgN/A
3:00 PM73 °FPassing clouds.7 mph50%30.07 "HgN/A
2:30 PM72 °FPassing clouds.6 mph50%30.09 "HgN/A
2:00 PM72 °FPassing clouds.6 mph53%30.09 "HgN/A
1:30 PM72 °FPassing clouds.6 mph53%30.09 "HgN/A
1:00 PM70 °FPassing clouds.6 mph60%30.09 "HgN/A
12:30 PM70 °FPassing clouds.6 mph60%30.12 "HgN/A
12:00 PM68 °FScattered clouds.5 mph64%30.12 "HgN/A
Weather by CustomWeather, © 2014

See weather overviewHow to use our weather pages